[[{"header":{"parameterUnit":"m.s-1","parameterCategory":1,"la1":30.2991,"la2":30.254,"lo1":-89.0895,"lo2":-89.0444,"dy":0.0017,"dx":0.0017,"nx":28,"ny":28,"refTime":"2025-04-22T03:00:00:Z","depth":0,"parameterNumber":2,"parameterNumberName":"U-component_of_WINDS"},"data":[0,0,0,0,0,0,0,0,0,0,0,0,0,0,0,0,0,0,0,0,0,0,0,0,0,0,0,0,0,0,0,0,0,0,0,0,0,0,0,0,0,0,0,0,0,0,0,0,0,0,0,0,0,0,0,0,0,0,-2.0127,-2.0127,0,-2.0114,-2.0114,-2.0114,-2.0085,-2.0084,-2.0084,-2.0083,-2.0071,-2.0071,-2.0072,0,0,0,0,0,0,0,0,0,0,0,0,0,-2.0127,-2.0127,-2.0127,-2.0127,-2.0126,-2.0114,-2.0114,-2.0114,-2.0085,-2.0084,-2.0083,-2.0083,-2.0071,-2.0071,-2.0072,0,0,0,0,0,0,0,0,0,0,0,0,0,-2.0122,-2.0127,-2.0127,-2.011,-2.0109,-2.0114,-2.0114,-2.0114,-2.0085,-2.0084,-2.0083,-2.0082,-2.0071,-2.0071,-2.0072,-2.0092,0,0,-2.0073,-2.0073,0,0,0,0,0,0,0,0,-2.0122,-2.0122,-2.0113,-2.0112,-2.011,-2.01,-2.011,-2.0107,-2.0085,-2.0094,-2.0083,-2.0082,-2.0082,-2.0081,-2.0081,-2.0092,-2.0091,-2.0073,-2.0073,-2.0073,-2.0073,0,0,0,0,0,0,0,-2.0122,-2.0122,-2.0122,-2.0113,-2.0111,-2.0104,-2.0102,-2.0109,-2.0093,-2.0093,-2.0091,-2.009,-2.0081,-2.008,-2.008,-2.0091,-2.0073,-2.0073,-2.0073,-2.0074,-2.0118,-2.0119,0,0,0,0,0,0,-2.0125,-2.0123,-2.0122,-2.0121,-2.0114,-2.0105,-2.0103,-2.0104,-2.0093,-2.009,-2.0091,-2.0089,-2.008,-2.008,-2.008,-2.0102,-2.0073,-2.0074,-2.0074,-2.0117,-2.0118,-2.0119,0,0,0,0,0,0,-2.0125,-2.0125,-2.0123,-2.0121,-2.0121,-2.0106,-2.0107,-2.0104,-2.0104,-2.0091,-2.0088,-2.0093,-2.008,-2.0079,-2.0089,-2.0102,-2.0074,-2.0074,-2.0116,-2.0117,-2.0119,-2.0148,0,0,0,0,0,0,-2.0125,-2.0125,-2.0133,-2.0122,-2.0121,-2.0132,-2.0108,-2.0105,-2.0105,-2.0102,-2.0093,-2.009,-2.0079,-2.0089,-2.009,-2.0102,-2.0074,-2.0115,-2.0117,-2.0118,-2.0146,-2.0151,-2.0154,0,0,0,0,0,-2.0125,-2.0142,-2.0133,-2.0133,-2.013,-2.0133,-2.0132,-2.0118,-2.0106,-2.0113,-2.0105,-2.0091,-2.01,-2.009,-2.0091,-2.0103,-2.0114,-2.0116,-2.0118,-2.0144,-2.015,-2.0154,0,0,0,0,0,0,-2.0155,-2.014,-2.013,-2.0144,-2.014,-2.0128,-2.0137,-2.0124,-2.0124,-2.0121,-2.0104,-2.0103,-2.0115,-2.011,-2.0099,-2.0122,-2.0105,-2.0107,-2.0125,-2.013,-2.0134,-2.0134,-2.0075,0,0,0,0,0,-2.0163,-2.0167,-2.0154,-2.0167,-2.0165,-2.0152,-2.0152,-2.0142,-2.0137,-2.0135,-2.0128,-2.0124,-2.0126,-2.0128,-2.0129,-2.0146,-2.0143,-2.0155,-2.0159,-2.0162,-2.0164,-2.0172,-2.0177,-2.0126,-2.0126,-2.0126,0,0,-2.018,-2.0172,-2.0176,-2.0173,-2.0168,-2.0172,-2.015,-2.0156,-2.0159,-2.0136,-2.0145,-2.0139,-2.0134,-2.0147,-2.0153,-2.0144,-2.0178,-2.0165,-2.0168,-2.0168,-2.0175,-2.018,-2.0184,-2.0128,-2.0127,-2.0127,0,0,-2.0212,-2.0207,-2.0217,-2.0213,-2.0207,-2.0198,-2.02,-2.019,-2.0185,-2.0194,-2.0177,-2.0181,-2.0185,-2.0182,-2.018,-2.0212,-2.0199,-2.0213,-2.0234,-2.0242,-2.0246,-2.025,-2.026,-2.0265,-2.0216,-2.0216,-2.0216,0,-2.0234,-2.0239,-2.0224,-2.023,-2.023,-2.021,-2.022,-2.0217,-2.0211,-2.0211,-2.0201,-2.0206,-2.0201,-2.0213,-2.0221,-2.0221,-2.0223,-2.0214,-2.0247,-2.025,-2.0253,-2.0263,-2.0267,-2.0217,-2.0217,-2.0217,-2.0217,0,-2.0266,-2.027,-2.0279,-2.0274,-2.0274,-2.0282,-2.0269,-2.0271,-2.0261,-2.0253,-2.0262,-2.0255,-2.0255,-2.0257,-2.0247,-2.0268,-2.0262,-2.025,-2.0232,-2.026,-2.0269,-2.0273,-2.022,-2.0219,-2.0219,-2.0218,0,0,-2.0316,-2.0302,-2.0306,-2.0303,-2.0294,-2.0297,-2.0305,-2.0304,-2.0306,-2.0304,-2.0309,-2.0313,-2.0302,-2.0301,-2.0291,-2.0298,-2.0323,-2.0285,-2.0284,-2.0291,-2.0344,-2.0352,-2.0357,-2.0314,-2.0315,-2.0316,-2.0344,0,-2.0346,-2.0357,-2.0344,-2.0358,-2.0362,-2.0343,-2.035,-2.0345,-2.0338,-2.034,-2.0333,-2.0336,-2.0321,-2.032,-2.0326,-2.0318,-2.0333,-2.0316,-2.0319,-2.032,-2.032,-2.0362,-2.0371,-2.0398,-2.0348,-2.0348,-2.0349,0,-2.0382,-2.038,-2.0394,-2.0385,-2.0386,-2.0392,-2.039,-2.0392,-2.0387,-2.0382,-2.0381,-2.0368,-2.0375,-2.0359,-2.0368,-2.0357,-2.0358,-2.0354,-2.0355,-2.0354,-2.0335,-2.0361,-2.0406,-2.041,-2.0354,-2.0354,-2.0353,0,-2.0415,-2.0417,-2.0426,-2.0424,-2.0414,-2.0418,-2.0414,-2.0408,-2.0408,-2.0407,-2.0407,-2.0407,-2.0406,-2.0406,-2.0394,-2.0384,-2.0405,-2.0388,-2.04,-2.0401,-2.0405,-2.0404,-2.045,-2.0407,-2.0407,-2.0407,-2.0407,0,-2.0449,-2.0459,-2.0441,-2.0446,-2.0456,-2.0441,-2.0452,-2.0446,-2.0441,-2.0445,-2.0429,-2.0434,-2.0418,-2.0421,-2.0412,-2.042,-2.0421,-2.0416,-2.0413,-2.0417,-2.0417,-2.0416,-2.0414,-2.0408,-2.0408,-2.0408,-2.0407,0,-2.0489,-2.0477,-2.0485,-2.0474,-2.0472,-2.048,-2.0471,-2.0475,-2.0467,-2.0473,-2.0473,-2.0461,-2.0463,-2.0451,-2.0452,-2.0446,-2.0459,-2.0453,-2.046,-2.0458,-2.0471,-2.0469,-2.0516,-2.0522,-2.0477,-2.0477,-2.0477,0,-2.0511,-2.0517,-2.0507,-2.0509,-2.0505,-2.0508,-2.0508,-2.0493,-2.0494,-2.0489,-2.0494,-2.0495,-2.0495,-2.0499,-2.0491,-2.0491,-2.0485,-2.0501,-2.0485,-2.0488,-2.0484,-2.0483,-2.0483,-2.0504,-2.0505,-2.0505,-2.0506,0,-2.0551,-2.0545,-2.0545,-2.0543,-2.0544,-2.0542,-2.0539,-2.0541,-2.0526,-2.0528,-2.0529,-2.0529,-2.0529,-2.053,-2.0529,-2.0525,-2.0513,-2.0511,-2.0514,-2.0517,-2.052,-2.0518,-2.0468,-2.051,-2.0509,-2.0509,-2.0509,-2.0509,-2.0581,-2.0586,-2.058,-2.0581,-2.0577,-2.0575,-2.0578,-2.0571,-2.0572,-2.057,-2.0562,-2.0566,-2.056,-2.0557,-2.0554,-2.0557,-2.0549,-2.0553,-2.0554,-2.0555,-2.0557,-2.0521,-2.0556,-2.0556,-2.0556,-2.0556,-2.0556,0,-2.062,-2.0615,-2.0616,-2.0612,-2.0613,-2.0601,-2.0598,-2.0599,-2.0602,-2.0598,-2.0598,-2.06,-2.0601,-2.0592,-2.0592,-2.0596,-2.059,-2.0596,-2.0595,-2.0594,-2.0564,-2.0561,-2.06,-2.06,-2.06,-2.06,-2.06,-2.06,-2.064,-2.0647,-2.0641,-2.0646,-2.0641,-2.0644,-2.0642,-2.064,-2.0637,-2.064,-2.064,-2.0634,-2.0628,-2.0628,-2.0628,-2.0625,-2.0626,-2.0633,-2.0629,-2.0601,-2.0596,-2.0592,-2.0589,-2.0634,-2.0634,-2.0658,-2.0659,-2.0659]},{"header":{"parameterUnit":"m.s-1","parameterCategory":1,"la1":30.2991,"la2":30.254,"lo1":-89.0895,"lo2":-89.0444,"dy":0.0017,"dx":0.0017,"nx":28,"ny":28,"refTime":"2025-04-22T03:00:00:Z","depth":0,"parameterNumber":3,"parameterNumberName":"V-component_of_WINDS"},"data":[0,0,0,0,0,0,0,0,0,0,0,0,0,0,0,0,0,0,0,0,0,0,0,0,0,0,0,0,0,0,0,0,0,0,0,0,0,0,0,0,0,0,0,0,0,0,0,0,0,0,0,0,0,0,0,0,0,0,3.8136,3.8136,0,3.8135,3.8135,3.8135,3.8092,3.809,3.8089,3.8088,3.8087,3.8088,3.8089,0,0,0,0,0,0,0,0,0,0,0,0,0,3.8099,3.81,3.8136,3.8136,3.8136,3.8135,3.8135,3.8135,3.8092,3.809,3.8089,3.8088,3.8087,3.8088,3.8089,0,0,0,0,0,0,0,0,0,0,0,0,0,3.8108,3.81,3.8136,3.8114,3.8112,3.8135,3.8135,3.8135,3.8092,3.809,3.8089,3.8087,3.8086,3.8088,3.8089,3.8133,0,0,3.8094,3.8095,0,0,0,0,0,0,0,0,3.8108,3.811,3.8117,3.8116,3.8114,3.8112,3.8122,3.8135,3.8093,3.81,3.8088,3.8086,3.8097,3.8097,3.8101,3.8133,3.8133,3.8094,3.8095,3.8096,3.8096,0,0,0,0,0,0,0,3.8107,3.811,3.8136,3.8118,3.8115,3.8104,3.8104,3.8124,3.8108,3.8099,3.8096,3.8096,3.8095,3.81,3.8101,3.8133,3.8094,3.8096,3.8097,3.8097,3.8202,3.8204,0,0,0,0,0,0,3.811,3.8109,3.8136,3.8136,3.8107,3.8106,3.8106,3.8114,3.8107,3.8105,3.8098,3.8094,3.8098,3.8099,3.81,3.8151,3.8096,3.8097,3.8098,3.82,3.8202,3.8204,0,0,0,0,0,0,3.8109,3.8113,3.8136,3.8122,3.8124,3.8109,3.8119,3.8115,3.8119,3.8107,3.8103,3.8105,3.8096,3.8098,3.8126,3.8151,3.8098,3.8099,3.8198,3.8201,3.8203,3.8254,0,0,0,0,0,0,3.8108,3.8113,3.8129,3.8122,3.8125,3.8161,3.812,3.8116,3.8122,3.8117,3.8113,3.811,3.8095,3.8123,3.8127,3.8152,3.8101,3.8195,3.8199,3.8202,3.825,3.8258,3.8265,0,0,0,0,0,3.8107,3.8143,3.813,3.8134,3.8145,3.8163,3.8164,3.8146,3.8124,3.8141,3.8133,3.811,3.8148,3.8127,3.813,3.8156,3.8194,3.8198,3.8202,3.8247,3.8257,3.8265,0,0,0,0,0,0,3.8153,3.8142,3.8127,3.8162,3.8164,3.8155,3.8175,3.8157,3.8165,3.816,3.8138,3.8137,3.8168,3.8165,3.8142,3.8198,3.8167,3.8172,3.8199,3.8209,3.8216,3.8216,3.8102,0,0,0,0,0,3.8167,3.8182,3.8172,3.8204,3.8205,3.8191,3.8197,3.8184,3.8184,3.8185,3.8178,3.818,3.8192,3.82,3.821,3.825,3.8248,3.8269,3.8277,3.8283,3.8288,3.8308,3.8318,3.8218,3.8218,3.8218,0,0,3.8196,3.8192,3.8203,3.8213,3.8212,3.8229,3.8191,3.821,3.8222,3.8187,3.8213,3.8209,3.8209,3.8242,3.8257,3.824,3.8315,3.8288,3.8293,3.8295,3.8314,3.8323,3.8332,3.8221,3.822,3.822,0,0,3.8258,3.8256,3.8283,3.8284,3.8284,3.8274,3.828,3.8275,3.8271,3.8296,3.8271,3.8284,3.8306,3.8307,3.831,3.8373,3.8353,3.8377,3.8417,3.8438,3.8445,3.8452,3.8475,3.8483,3.8382,3.8382,3.8382,0,3.8294,3.8318,3.8299,3.832,3.8325,3.8295,3.8322,3.8323,3.8326,3.8331,3.8312,3.8339,3.8337,3.837,3.8386,3.839,3.8396,3.8378,3.8446,3.8453,3.8459,3.848,3.8489,3.8385,3.8385,3.8385,3.8384,0,3.8363,3.838,3.8401,3.8406,3.8413,3.8437,3.8422,3.8431,3.8417,3.8409,3.8436,3.8433,3.8442,3.8449,3.8435,3.8481,3.8471,3.845,3.8417,3.8471,3.8491,3.8499,3.8389,3.8388,3.8387,3.8387,0,0,3.8452,3.8447,3.8455,3.8457,3.8455,3.8468,3.849,3.85,3.8509,3.8513,3.8531,3.855,3.8531,3.8535,3.8521,3.8539,3.859,3.8515,3.8515,3.8529,3.864,3.8656,3.8666,3.8576,3.8578,3.8579,3.864,0,3.8512,3.855,3.8534,3.8574,3.859,3.8562,3.8582,3.8583,3.8576,3.8589,3.8581,3.8595,3.8568,3.8571,3.8587,3.858,3.8612,3.8575,3.8593,3.8594,3.8594,3.8676,3.8693,3.875,3.8648,3.8649,3.865,0,3.8587,3.8594,3.8636,3.8632,3.8638,3.8656,3.8664,3.8676,3.8677,3.867,3.8676,3.8658,3.868,3.8648,3.8678,3.8654,3.866,3.8658,3.866,3.866,3.8625,3.8679,3.8768,3.8777,3.8662,3.8661,3.866,0,3.8648,3.8668,3.8696,3.8698,3.8695,3.8708,3.8707,3.8706,3.8713,3.872,3.8724,3.8734,3.8739,3.8746,3.8732,3.871,3.8764,3.8731,3.8759,3.876,3.8772,3.8771,3.8863,3.8776,3.8776,3.8776,3.8776,0,3.8716,3.8743,3.8723,3.874,3.877,3.8751,3.878,3.8776,3.8776,3.8792,3.8768,3.8783,3.8763,3.8777,3.8765,3.8792,3.8794,3.879,3.8787,3.8792,3.8793,3.8796,3.8791,3.8778,3.8778,3.8777,3.8777,0,3.8789,3.8778,3.8806,3.88,3.88,3.8821,3.8817,3.8832,3.8824,3.8844,3.8848,3.8836,3.885,3.8837,3.885,3.8843,3.8878,3.8869,3.8878,3.8876,3.8905,3.8902,3.9002,3.9014,3.892,3.8921,3.8921,0,3.8834,3.8854,3.8851,3.886,3.886,3.8875,3.8883,3.8865,3.8874,3.8877,3.8892,3.8905,3.8914,3.8938,3.8931,3.8941,3.8932,3.8966,3.8933,3.8938,3.8932,3.8931,3.8933,3.8973,3.8974,3.8975,3.8976,0,3.8914,3.8907,3.8919,3.8929,3.8938,3.8945,3.895,3.8958,3.8941,3.8951,3.8966,3.8973,3.8988,3.9001,3.9009,3.9008,3.8989,3.8986,3.8993,3.8999,3.9003,3.9001,3.8896,3.8984,3.8983,3.8982,3.8982,3.8982,3.8974,3.8991,3.8991,3.9005,3.9007,3.9012,3.9027,3.9021,3.9033,3.9044,3.9033,3.9051,3.9052,3.9061,3.9062,3.9076,3.9062,3.9072,3.9075,3.9078,3.9082,3.9001,3.9078,3.9077,3.9077,3.9077,3.9077,0,3.9053,3.9052,3.9065,3.9073,3.9084,3.9066,3.9071,3.9081,3.9097,3.91,3.911,3.9127,3.914,3.9133,3.9144,3.9157,3.9148,3.916,3.9159,3.9159,3.9094,3.9087,3.9167,3.9167,3.9167,3.9167,3.9166,3.9166,3.9095,3.9123,3.9116,3.9144,3.9143,3.9161,3.9166,3.917,3.9172,3.9193,3.9204,3.9199,3.9198,3.9209,3.922,3.9218,3.9223,3.9238,3.9233,3.9172,3.9163,3.9155,3.9148,3.9239,3.9239,3.9296,3.9297,3.9297]}]]